Location: *
(50.0228°S, 177.2688°W)
Time: 18:36:37
(UTC+00:00)

Cosmos 1025 Rocket - Pass Details

Date: 07 April 2020
Orbit: 594 x 618 km, 82.5° (Epoch: 01 June)

Event Time Altitude Azimuth Distance (km) Brightness Sun altitude
Rises 05:53:25 0° 349° (N) 2,839 6.7 -5.7°
Reaches altitude 10° 05:55:36 10° 347° (NNW) 1,946 5.8 -6.1°
Maximum altitude 05:59:55 80° 259° (W) 625 3.2 -6.8°
Drops below altitude 10° 06:04:19 10° 172° (S) 1,984 5.6 -7.5°
Sets 06:06:34 0° 170° (S) 2,899 6.4 -7.8°
